Overview Statistics Trail Chart Weather Telemetry Raw packets
 

This is the latest recevied weather packets stored in our database for station/object NW5W-12. If no packets are shown the sender has not sent any weather packets the latest 10 day(s).

<< 90 91 92 93 94 95 96 >>
Time Temp. Humidity Pressure Rain* Wind** Luminosity Snow
1788035939 19.44° C 62% 1020.9 hPa 4.83 mm - - -
1788035640 19.44° C 66% 1020.9 hPa 4.83 mm - - -
1788035339 19.44° C 65% 1021 hPa 4.83 mm - - -
1788035039 18.89° C 66% 1021.1 hPa 4.83 mm - - -
1788034740 18.89° C 67% 1021 hPa 4.83 mm - - -
1788034440 18.89° C 65% 1021 hPa 4.83 mm - - -
1788034140 18.33° C 67% 1021 hPa 4.83 mm - - -
1788033839 18.89° C 67% 1020.9 hPa 4.83 mm - - -
1788033540 18.33° C 69% 1020.9 hPa 4.83 mm - - -
1788033239 17.78° C 69% 1020.8 hPa 4.83 mm - - -
1788032940 17.22° C 71% 1020.9 hPa 4.83 mm - - -
1788032640 17.22° C 73% 1021 hPa 4.83 mm - - -
1788032339 17.22° C 73% 1021.1 hPa 4.83 mm - - -
1788032040 17.22° C 74% 1021.1 hPa 4.83 mm - - -
1788031739 16.67° C 75% 1021.1 hPa 4.83 mm - - -
1788031440 15.56° C 77% 1021.1 hPa 4.83 mm - - -
1788031140 15° C 78% 1021.2 hPa 4.83 mm - - -
1788030840 15° C 80% 1021.3 hPa 4.83 mm - - -
1788030540 15° C 81% 1021.5 hPa 4.83 mm - - -
1788030240 15° C 81% 1021.5 hPa 4.83 mm - - -
1788029940 15.56° C 82% 1021.6 hPa 4.83 mm - - -
1788029640 15.56° C 81% 1021.7 hPa 4.83 mm - - -
1788029340 15° C 83% 1021.8 hPa 4.83 mm - - -
1788029040 14.44° C 84% 1021.8 hPa 4.83 mm - - -
1788028740 13.89° C 84% 1021.8 hPa 4.83 mm - - -

* Rain since midnight (hover to see other rain measurements)
** Current wind speed in m/s (hover to see current wind gust speed)